This is the latest recevied weather packets stored in our database for station/object W8BS. If no packets are shown the sender has not sent any weather packets the latest 1 day(s).
| Time | Temp. | Humidity | Pressure | Rain* | Wind** | Luminosity | Snow |
|---|---|---|---|---|---|---|---|
| 1778002851 | 23.89° C | 44% | 1011.3 hPa | 0 mm | 3.13 m/s, 245° | 573 W/m² | - |
| 1778002548 | 23.33° C | 46% | 1011.2 hPa | 0 mm | 0.89 m/s, 169° | 668 W/m² | - |
| 1778002245 | 22.78° C | 46% | 1011.6 hPa | 0 mm | 0.89 m/s, 190° | 697 W/m² | - |
| 1778001942 | 22.78° C | 45% | 1011.6 hPa | 0 mm | 3.13 m/s, 238° | 745 W/m² | - |
| 1778001639 | 22.78° C | 47% | 1011.3 hPa | 0 mm | 1.34 m/s, 220° | 758 W/m² | - |
| 1778001334 | 22.22° C | 49% | 1011.6 hPa | 0 mm | 3.58 m/s, 200° | 426 W/m² | - |
| 1778001031 | 22.78° C | 47% | 1011.4 hPa | 0 mm | 1.79 m/s, 186° | 273 W/m² | - |
| 1778000728 | 22.78° C | 48% | 1011.7 hPa | 0 mm | 0.89 m/s, 183° | 728 W/m² | - |
| 1778000424 | 22.22° C | 48% | 1011.6 hPa | 0 mm | 0.89 m/s, 187° | 255 W/m² | - |
| 1778000119 | 22.22° C | 48% | 1011.9 hPa | 0 mm | 2.24 m/s, 227° | 736 W/m² | - |
| 1777999815 | 22.78° C | 47% | 1011.9 hPa | 0 mm | 1.34 m/s, 182° | 275 W/m² | - |
| 1777999511 | 22.78° C | 47% | 1011.9 hPa | 0 mm | 2.24 m/s, 230° | 688 W/m² | - |
| 1777999209 | 21.67° C | 48% | 1011.8 hPa | 0 mm | 0.89 m/s, 190° | 706 W/m² | - |
| 1777998908 | 21.67° C | 48% | 1011.6 hPa | 0 mm | 2.68 m/s, 172° | 660 W/m² | - |
| 1777998604 | 21.67° C | 48% | 1011.9 hPa | 0 mm | 1.34 m/s, 197° | 681 W/m² | - |
| 1777998297 | 21.11° C | 49% | 1012.3 hPa | 0 mm | 1.34 m/s, 219° | 698 W/m² | - |
| 1777997994 | 21.67° C | 49% | 1012.1 hPa | 0 mm | 3.13 m/s, 271° | 659 W/m² | - |
| 1777997690 | 22.22° C | 46% | 1012.2 hPa | 0 mm | 2.24 m/s, 207° | 658 W/m² | - |
| 1777997388 | 21.67° C | 48% | 1012.3 hPa | 0 mm | 2.68 m/s, 190° | 691 W/m² | - |
| 1777997086 | 21.11° C | 49% | 1012.5 hPa | 0 mm | 3.13 m/s, 247° | 709 W/m² | - |
| 1777996782 | 21.67° C | 49% | 1012.5 hPa | 0 mm | 2.24 m/s, 247° | 694 W/m² | - |
| 1777996479 | 21.67° C | 49% | 1012.4 hPa | 0 mm | 1.34 m/s, 163° | 299 W/m² | - |
| 1777996176 | 21.67° C | 50% | 1012.4 hPa | 0 mm | 1.79 m/s, 241° | 701 W/m² | - |
| 1777995872 | 21.67° C | 49% | 1012.5 hPa | 0 mm | 2.24 m/s, 228° | 691 W/m² | - |
| 1777995568 | 21.67° C | 50% | 1012.4 hPa | 0 mm | 2.68 m/s, 169° | 713 W/m² | - |
* Rain latest hour (hover to see other rain measurements)
** Current wind speed in m/s (hover to see current wind gust speed)